Tracking 22993 objects as of 10-May-2021
HD Live streaming from Space Station
objects crossing your sky now

ATLAS 2AS CENTAUR R/B

Track ATLAS 2AS CENTAUR R/B now!
10-day predictions


NORAD ID: 26072
Int'l Code: 2000-007B
Perigee: 264.7 km
Apogee: 9,001.2 km
Inclination: 18.1 °
Period: 191.5 minutes
Semi major axis: 11003 km
RCS: 16.571 m2 (large)
Launch date: February 3, 2000
Source: United States (US)
Launch site: AIR FORCE EASTERN TEST RANGE (AFETR)

Note: This is a ROCKET BODY
aabbcc
Your satellite tracking list
Your tracking list is empty




NASA's NSSDC Master Catalog

Two Line Element Set (TLE):
1 26072U 00007B   21129.78722161  .00013241  00000-0  58685-3 0  9999
2 26072  18.0992 206.4829 3969740 233.5220  83.0527  7.52109912202458
Source of the keplerian elements: AFSPC